Wind_Speed
2 2 2 2 2 2 2 3 4 4 4 4 3 3 3 3 3 4 5 4 4 5 5 6 6 7 7 8 8 9 9 10 11 11 12 12 12 12 13 13 13 13 14 14 14 14 14 15 15
1 1 1 1 1 2 2 3 3 3 3 3 2 2 2 2 2 3 4 4 4 5 5 5 6 6 6 7 7 8 9 9 10 11 11 11 11 12 12 12 12 13 13 13 13 13 14 14 14
1 1 1 0 1 1 2 2 3 3 2 2 2 2 1 1 1 2 4 4 4 4 5 5 5 6 6 7 8 8 9 9 10 10 11 11 11 11 12 12 12 13 13 13 13 13 14 14 14
3 2 2 2 1 2 2 2 2 2 2 1 2 1 0 0 0 1 3 4 3 3 4 4 5 6 6 7 8 9 9 10 10 10 11 12 12 12 13 13 13 14 14 14 15 15 15 15 15
4 4 3 3 2 3 3 2 2 2 1 0 0 0 1 1 0 1 2 4 4 3 3 5 5 6 7 8 8 9 10 10 11 12 12 13 14 14 15 15 15 15 16 16 16 16 17 17 17
5 5 5 5 4 4 4 3 2 2 2 2 1 2 3 2 2 2 3 5 5 5 5 6 7 8 8 9 10 11 11 12 13 13 14 15 15 16 17 17 17 18 18 18 19 19 19 19 20
7 7 7 7 6 6 6 5 4 4 4 4 3 4 5 5 5 4 4 6 7 8 7 8 9 9 10 11 12 13 13 14 15 16 16 17 17 18 19 20 20 21 21 22 22 22 22 23 23
9 9 9 8 7 7 7 7 7 7 6 6 6 6 7 7 7 7 7 8 9 10 10 10 11 12 13 14 14 15 16 17 17 18 19 19 20 21 22 22 23 24 25 25 26 26 26 26 26
11 11 11 9 9 9 9 9 9 9 9 9 8 8 9 9 9 9 9 10 11 12 13 13 14 14 15 16 17 17 18 19 20 20 21 22 23 24 25 25 26 27 27 28 29 29 30 30 30
14 13 12 12 11 12 12 12 12 12 12 11 11 11 11 11 11 12 12 12 12 13 14 15 16 16 17 18 18 19 20 21 21 22 23 24 25 26 26 27 28 28 29 30 30 31 31 32 33
17 16 15 14 14 14 14 14 14 14 14 14 14 14 14 14 14 14 15 14 14 15 16 17 18 19 19 20 20 21 21 22 23 23 24 25 26 27 28 29 29 30 30 31 31 32 32 33 34
19 19 18 18 17 17 17 17 16 16 16 16 16 16 16 16 16 17 17 17 17 17 18 19 20 21 21 22 22 22 23 23 24 25 26 26 27 28 29 30 30 31 31 31 32 33 33 34 35
21 21 21 21 20 20 19 19 18 19 18 18 18 18 19 19 19 19 19 20 20 19 19 20 21 22 22 23 23 24 24 25 25 26 27 27 28 28 29 29 30 31 32 32 32 33 34 34 35
24 23 23 23 23 22 21 21 20 22 21 20 20 20 21 21 21 21 21 21 22 22 21 21 22 23 23 24 24 25 25 26 26 27 27 27 28 29 29 30 31 32 32 33 34 34 35 36 36
26 25 25 25 24 24 23 23 23 23 23 22 22 22 23 22 22 22 22 22 23 23 22 22 23 23 24 25 25 26 26 27 27 27 27 28 28 29 30 31 31 32 32 33 34 35 36 37 37
27 27 26 26 26 26 26 25 26 25 25 24 24 24 24 24 24 24 24 24 24 24 23 23 24 24 25 25 26 26 27 27 27 28 28 29 29 30 30 31 32 32 33 34 35 36 37 38 38
28 28 27 27 27 27 27 27 28 27 26 25 25 25 25 25 25 24 24 24 24 24 24 24 25 25 25 26 26 27 27 28 28 29 29 29 30 31 31 32 33 33 34 35 36 37 37 38 39
29 28 28 29 29 28 28 28 29 29 27 26 26 25 26 25 25 25 25 25 25 25 25 25 25 25 26 26 26 27 27 28 29 30 30 30 31 32 32 33 34 35 35 37 37 38 39 40 41
30 29 29 30 30 29 28 27 28 29 27 25 25 25 25 25 25 25 25 25 25 25 25 25 25 26 26 26 26 27 28 29 29 30 31 31 32 33 34 35 36 36 37 38 39 40 40 42 43
30 30 29 30 32 31 29 27 27 28 28 26 25 25 25 25 25 25 25 25 25 25 25 26 26 26 26 26 27 27 28 29 31 31 32 33 34 35 36 37 38 38 39 40 41 42 42 43 45
29 28 29 30 32 32 31 27 26 27 27 26 26 25 25 25 24 25 25 25 25 25 25 25 25 25 26 26 27 28 29 30 31 32 33 35 36 37 38 39 40 41 41 42 43 44 44 45 46
28 29 30 30 31 31 31 29 24 27 27 26 26 25 25 25 25 24 24 24 24 25 25 25 25 25 26 27 28 29 30 32 33 34 35 36 37 38 39 40 41 42 43 44 45 46 47 47 48
30 30 31 31 32 30 29 31 23 25 26 26 25 24 24 24 24 24 23 23 24 24 25 25 26 26 27 28 30 31 32 33 35 36 37 38 39 40 41 42 43 44 45 46 47 48 49 50 51
31 32 33 33 33 31 27 31 24 23 25 25 24 24 23 24 23 23 23 23 24 24 25 26 27 28 29 30 31 32 34 35 37 38 39 40 41 42 43 44 45 46 47 48 49 50 51 52 53
31 32 34 34 34 31 29 30 25 23 25 25 24 23 23 23 23 23 23 23 24 25 26 27 28 29 30 31 33 34 36 37 39 40 41 42 43 44 46 46 47 48 49 50 51 52 53 54 56
31 32 33 34 33 31 30 30 25 24 24 25 24 24 24 24 23 23 23 24 25 26 27 28 29 31 32 33 35 37 38 39 41 42 43 44 45 46 47 48 49 50 51 53 54 54 56 57 58
31 31 32 34 34 32 31 29 26 23 24 24 24 24 24 24 23 23 24 25 26 27 28 30 31 32 34 35 37 38 40 41 43 44 45 46 47 48 48 49 50 51 53 54 55 56 57 58 60
31 31 33 34 34 33 31 28 26 24 24 24 24 24 24 24 24 24 25 26 28 29 30 31 33 35 36 37 39 40 42 43 45 46 47 48 49 49 50 51 52 53 54 55 57 58 59 60 62
32 32 33 34 35 34 32 28 25 25 25 24 24 25 24 25 25 26 27 28 29 30 32 33 35 37 38 39 41 42 44 45 46 47 48 49 50 51 52 52 53 54 56 57 59 60 61 63 64
33 32 32 34 34 34 33 28 25 26 26 26 25 25 26 26 27 28 28 29 30 32 33 35 37 38 40 41 43 44 46 47 47 48 49 50 51 52 53 54 55 56 57 59 60 62 63 65 66
Wind_Direction
100 108 126 134 146 135 142 144 132 132 141 147 157 169 189 204 217 236 244 246 250 257 265 269 272 275 278 280 281 281 283 285 285 285 285 285 285 284 283 283 282 281 280 279 278 277 277 276 276
143 129 137 138 123 119 148 154 135 125 124 127 136 151 195 220 227 241 254 258 260 264 268 270 272 277 282 284 285 285 286 287 287 287 287 286 286 285 284 283 283 283 282 280 279 279 278 277 276
239 243 247 165 118 159 181 160 143 133 121 107 97 113 167 233 214 247 265 269 269 268 270 272 275 279 281 284 286 287 287 288 288 289 289 289 288 287 286 285 284 284 283 281 280 279 279 278 277
258 257 257 255 209 212 207 174 155 141 119 88 76 86 127 72 69 276 274 278 278 273 276 279 281 282 282 284 285 286 286 286 287 288 289 289 288 287 286 285 284 282 281 280 280 279 279 278 278
258 264 268 265 257 249 246 224 186 175 179 182 98 227 278 332 14 343 299 290 291 289 286 288 288 286 285 285 285 285 285 285 285 286 287 287 286 285 284 283 282 280 279 279 279 278 278 277 277
255 259 263 265 265 264 263 257 240 225 225 230 244 267 287 294 290 296 293 292 295 297 296 294 292 290 289 288 287 286 286 285 284 284 284 284 284 283 281 281 280 279 279 278 277 277 277 276 276
252 255 257 260 265 267 267 266 258 250 248 248 254 268 280 282 282 281 283 288 294 297 297 295 293 293 291 290 288 287 285 285 284 283 282 282 281 281 280 280 279 278 278 277 276 276 275 274 274
253 254 257 261 263 263 262 263 260 260 262 263 265 267 273 278 280 280 281 282 286 291 293 293 292 291 291 290 289 288 286 285 283 282 281 281 280 279 279 279 278 278 277 277 276 275 274 273 273
253 255 258 260 261 260 260 261 264 264 266 267 267 269 272 276 277 278 279 281 283 285 289 290 291 291 290 290 289 288 287 286 284 283 282 281 280 280 280 280 279 278 278 277 277 276 274 274 273
253 256 259 260 260 259 261 263 265 267 267 267 269 272 274 275 277 279 280 281 282 284 287 288 289 290 291 290 290 289 288 287 286 285 284 283 283 282 282 281 280 279 279 278 277 277 276 275 274
253 256 259 258 258 259 261 264 265 266 267 269 270 272 274 276 278 280 281 282 282 284 286 288 289 289 290 290 290 290 289 288 287 286 285 284 284 284 283 282 281 280 279 278 277 277 276 275 274
252 255 258 259 259 259 261 264 266 266 267 269 270 272 273 274 276 279 281 282 283 284 286 287 288 289 289 290 290 289 289 288 287 286 285 285 284 284 283 282 282 281 280 279 278 278 277 277 276
251 254 257 259 260 261 261 263 266 267 268 269 271 273 273 274 276 278 281 283 284 285 285 286 287 288 289 289 289 290 289 289 288 287 287 286 285 285 284 283 282 282 281 280 279 279 278 277 276
251 253 255 258 259 260 261 262 263 266 268 270 271 273 274 275 276 277 279 281 283 285 285 286 286 287 288 288 289 289 289 289 288 288 288 287 287 286 284 283 283 283 282 282 281 280 279 278 278
252 254 255 257 259 260 262 263 263 265 268 269 271 273 274 275 276 277 278 280 282 283 284 285 286 287 287 287 287 288 289 289 288 289 289 288 288 287 286 284 283 283 282 282 282 281 280 280 279
252 254 256 258 260 261 262 263 265 266 267 269 271 272 274 274 275 276 278 279 280 281 283 284 285 286 286 286 287 288 289 289 289 289 289 289 289 288 287 285 285 284 284 283 282 282 281 280 279
253 254 255 258 260 262 263 263 265 267 268 269 270 271 272 274 275 275 276 277 279 281 282 283 284 285 286 286 287 288 289 289 290 290 290 290 290 289 288 287 286 285 285 284 283 283 282 281 280
253 253 255 258 260 262 263 263 264 267 268 269 269 270 270 271 273 274 275 276 278 280 281 282 282 284 286 287 288 289 290 291 291 290 290 290 289 289 288 288 287 286 286 285 284 283 283 282 281
253 254 256 259 261 262 262 263 264 266 268 267 268 268 269 269 271 272 274 275 276 278 279 280 281 283 285 287 288 290 291 291 291 291 291 291 290 290 289 289 288 288 287 286 286 285 284 284 283
254 256 258 259 262 263 262 262 263 265 267 267 267 267 268 269 270 270 272 273 274 276 278 279 281 283 284 286 288 291 292 293 293 292 293 293 292 292 291 290 289 289 288 288 288 287 286 286 285
255 258 259 260 261 264 265 262 261 263 266 267 267 267 267 268 268 269 270 272 273 275 277 279 281 282 284 287 289 291 292 293 294 294 294 294 294 293 292 291 290 290 290 289 289 289 288 288 288
255 258 259 260 261 263 268 265 258 262 266 268 267 266 266 267 267 268 269 270 272 274 276 278 280 283 286 288 290 292 293 294 295 295 295 295 294 294 294 293 292 291 290 290 290 290 290 289 289
255 257 259 260 262 263 266 268 260 263 266 267 267 266 265 265 265 266 267 269 272 273 275 278 281 284 287 289 291 293 294 295 295 296 296 295 295 294 294 293 293 292 291 291 291 291 291 290 290
255 256 258 260 262 264 263 267 267 265 266 266 265 264 263 263 264 265 267 269 271 273 276 278 282 285 288 290 291 293 294 295 296 296 296 296 295 295 295 294 294 293 293 292 292 292 292 292 292
255 256 258 260 261 263 263 265 268 267 265 264 263 263 263 262 263 265 267 269 271 274 277 280 283 286 289 290 292 293 294 295 296 297 297 297 297 296 296 295 295 294 294 294 293 293 293 293 293
252 254 256 260 262 262 262 264 266 265 264 263 263 262 262 263 264 266 268 270 273 276 279 282 285 287 289 291 292 293 295 296 297 297 297 297 297 297 296 296 295 295 295 295 294 294 294 294 293
249 251 254 258 261 262 262 264 264 262 261 263 264 264 264 265 265 266 269 272 275 278 281 284 286 289 291 292 293 294 296 297 297 298 298 298 297 297 296 296 296 296 295 295 295 295 295 295 295
249 250 252 256 260 262 262 262 264 262 262 262 263 264 265 266 267 268 271 274 277 280 283 286 288 290 292 293 294 295 297 297 298 298 298 298 298 297 297 297 297 297 297 296 296 296 296 296 296
250 250 251 254 257 262 263 262 264 265 263 263 263 264 267 269 270 271 273 276 279 282 285 288 290 291 293 294 295 297 297 298 299 299 299 299 298 298 298 298 298 298 298 298 298 297 297 297 297
249 249 251 254 258 260 261 261 263 265 265 266 265 266 268 271 272 274 275 278 281 284 287 289 291 292 293 295 296 298 298 299 299 299 299 299 299 299 299 299 299 299 299 299 299 299 299 299 299
Height
5879 5879 5879 5880 5880 5880 5880 5880 5880 5880 5880 5881 5881 5882 5882 5883 5884 5885 5883 5882 5883 5883 5883 5883 5882 5882 5882 5882 5882 5882 5882 5882 5882 5881 5881 5881 5880 5880 5879 5878 5878 5877 5876 5876 5875 5875 5874 5873 5873
5880 5880 5880 5881 5880 5880 5881 5880 5880 5880 5880 5881 5881 5882 5882 5882 5882 5882 5881 5881 5881 5881 5881 5881 5881 5881 5881 5881 5881 5881 5880 5880 5880 5879 5879 5878 5878 5877 5877 5876 5875 5875 5874 5873 5872 5872 5871 5870 5870
5880 5880 5881 5881 5880 5881 5881 5880 5880 5880 5880 5880 5881 5881 5882 5881 5882 5881 5880 5880 5880 5880 5880 5880 5880 5879 5879 5879 5879 5879 5879 5878 5878 5877 5877 5876 5876 5875 5875 5874 5873 5872 5872 5871 5870 5869 5869 5868 5867
5880 5881 5881 5881 5880 5881 5881 5880 5880 5880 5880 5880 5881 5881 5881 5881 5881 5881 5880 5879 5879 5879 5879 5879 5878 5878 5878 5878 5878 5877 5877 5877 5876 5875 5875 5874 5874 5873 5872 5872 5871 5870 5869 5868 5867 5866 5866 5865 5864
5880 5880 5881 5880 5880 5881 5880 5879 5879 5880 5880 5880 5880 5880 5880 5880 5880 5880 5879 5878 5878 5878 5878 5877 5877 5877 5877 5876 5876 5876 5875 5875 5874 5873 5873 5872 5871 5870 5869 5869 5868 5867 5866 5865 5864 5863 5862 5862 5861
5880 5879 5880 5879 5880 5880 5879 5879 5879 5879 5879 5879 5880 5879 5879 5879 5879 5879 5878 5877 5877 5877 5876 5876 5876 5875 5875 5874 5874 5874 5873 5872 5872 5871 5870 5869 5868 5867 5866 5865 5865 5864 5863 5862 5861 5860 5859 5858 5857
5879 5878 5878 5878 5879 5879 5879 5878 5878 5878 5878 5879 5879 5878 5878 5877 5877 5878 5878 5876 5875 5875 5875 5874 5874 5873 5873 5872 5872 5871 5870 5870 5869 5868 5867 5866 5865 5864 5863 5862 5861 5860 5859 5858 5857 5856 5855 5854 5853
5876 5877 5876 5877 5878 5878 5878 5877 5877 5877 5877 5877 5877 5877 5876 5876 5876 5876 5876 5875 5874 5873 5873 5872 5872 5871 5870 5870 5869 5868 5867 5866 5866 5865 5864 5862 5861 5860 5859 5858 5856 5855 5854 5853 5852 5851 5850 5849 5848
5874 5876 5875 5875 5876 5876 5876 5875 5875 5875 5875 5875 5875 5874 5874 5874 5873 5873 5874 5873 5872 5871 5870 5870 5869 5868 5868 5867 5866 5865 5864 5863 5862 5860 5859 5858 5857 5856 5854 5853 5852 5850 5849 5848 5847 5845 5844 5843 5842
5872 5873 5873 5873 5874 5873 5873 5873 5873 5873 5872 5872 5872 5872 5871 5871 5871 5870 5871 5870 5870 5869 5868 5867 5866 5865 5864 5863 5862 5861 5860 5859 5857 5856 5855 5853 5852 5851 5849 5848 5846 5845 5843 5842 5841 5839 5838 5837 5835
5869 5870 5870 5870 5870 5870 5871 5871 5870 5870 5870 5870 5869 5869 5869 5868 5868 5867 5867 5867 5866 5865 5864 5863 5862 5861 5860 5859 5858 5857 5856 5854 5853 5851 5850 5848 5847 5845 5843 5842 5840 5839 5837 5836 5834 5833 5831 5830 5828
5866 5866 5866 5867 5867 5867 5867 5867 5867 5867 5867 5866 5866 5866 5865 5865 5864 5864 5863 5863 5862 5862 5861 5859 5858 5857 5856 5855 5853 5852 5851 5849 5848 5846 5845 5843 5841 5839 5837 5835 5834 5832 5831 5829 5827 5826 5824 5823 5821
5861 5862 5862 5863 5863 5864 5863 5864 5864 5863 5863 5863 5862 5862 5862 5861 5861 5860 5859 5858 5858 5857 5857 5855 5854 5852 5851 5850 5848 5847 5845 5844 5842 5840 5839 5837 5835 5833 5831 5829 5827 5826 5824 5822 5820 5819 5817 5815 5814
5857 5857 5858 5858 5859 5859 5859 5859 5860 5859 5859 5859 5858 5858 5857 5857 5856 5856 5855 5854 5853 5852 5852 5851 5849 5848 5846 5845 5843 5842 5840 5838 5837 5835 5833 5831 5829 5827 5825 5823 5821 5819 5817 5815 5813 5811 5809 5808 5806
5851 5852 5853 5853 5854 5854 5855 5855 5855 5854 5855 5854 5854 5853 5852 5852 5851 5851 5850 5849 5848 5847 5847 5846 5844 5843 5841 5840 5838 5836 5835 5833 5831 5829 5827 5825 5823 5821 5819 5817 5815 5813 5811 5808 5806 5804 5802 5800 5798
5846 5847 5848 5849 5849 5849 5851 5851 5849 5849 5849 5849 5849 5848 5847 5847 5846 5845 5845 5844 5843 5842 5841 5840 5839 5837 5836 5834 5833 5831 5829 5827 5825 5823 5821 5819 5816 5814 5812 5810 5807 5805 5803 5801 5798 5796 5794 5792 5790
5840 5841 5842 5843 5843 5844 5844 5845 5844 5843 5844 5844 5844 5843 5842 5841 5841 5840 5839 5838 5837 5836 5835 5834 5833 5831 5830 5828 5827 5825 5823 5821 5819 5816 5814 5812 5810 5807 5805 5802 5800 5798 5795 5793 5790 5788 5786 5783 5781
5834 5835 5836 5837 5837 5838 5838 5839 5838 5838 5838 5839 5838 5837 5836 5836 5835 5834 5833 5832 5832 5831 5829 5828 5827 5825 5824 5822 5820 5818 5816 5814 5812 5810 5808 5805 5803 5800 5797 5795 5792 5790 5787 5784 5782 5779 5777 5774 5772
5827 5829 5830 5830 5830 5831 5832 5833 5833 5832 5832 5833 5832 5832 5831 5830 5829 5828 5828 5827 5826 5825 5824 5822 5821 5819 5818 5816 5814 5812 5810 5808 5806 5803 5801 5798 5795 5793 5790 5787 5784 5781 5779 5775 5773 5770 5767 5764 5761
5821 5822 5823 5824 5823 5824 5825 5827 5827 5826 5826 5826 5826 5826 5825 5824 5823 5822 5822 5821 5820 5819 5818 5816 5815 5813 5811 5810 5808 5806 5803 5801 5799 5796 5793 5790 5788 5785 5782 5779 5776 5772 5769 5766 5763 5760 5757 5754 5750
5814 5816 5816 5816 5816 5816 5818 5821 5821 5820 5819 5820 5820 5819 5818 5818 5817 5816 5815 5815 5813 5812 5811 5810 5809 5807 5805 5803 5801 5799 5796 5794 5791 5788 5785 5782 5779 5776 5773 5770 5766 5763 5760 5756 5753 5749 5746 5744 5739
5808 5808 5809 5809 5809 5810 5811 5812 5816 5814 5813 5813 5813 5813 5812 5811 5810 5810 5809 5808 5807 5806 5805 5804 5802 5801 5799 5797 5794 5792 5789 5787 5784 5781 5777 5774 5771 5767 5764 5760 5757 5753 5749 5746 5742 5738 5735 5732 5728
5801 5801 5802 5802 5802 5804 5805 5803 5810 5808 5807 5807 5806 5806 5805 5805 5804 5803 5803 5802 5801 5800 5799 5797 5796 5794 5792 5790 5787 5785 5782 5779 5776 5773 5769 5765 5762 5758 5754 5751 5747 5743 5739 5735 5731 5727 5723 5719 5715
5793 5795 5794 5795 5795 5798 5800 5797 5801 5802 5801 5800 5800 5800 5799 5798 5798 5797 5796 5796 5795 5793 5792 5791 5789 5787 5785 5782 5780 5777 5774 5771 5767 5764 5760 5756 5752 5748 5744 5740 5736 5732 5728 5724 5719 5715 5711 5706 5702
5787 5788 5788 5788 5788 5791 5792 5791 5795 5795 5794 5794 5794 5793 5793 5792 5792 5791 5790 5789 5788 5787 5785 5784 5782 5780 5777 5775 5772 5769 5766 5762 5758 5755 5751 5747 5742 5738 5734 5729 5725 5721 5716 5712 5707 5703 5698 5693 5688
5779 5781 5782 5782 5782 5784 5784 5784 5789 5788 5787 5787 5787 5787 5786 5786 5785 5785 5784 5783 5782 5780 5779 5777 5775 5772 5770 5767 5764 5760 5757 5753 5749 5745 5741 5737 5732 5728 5723 5718 5714 5709 5704 5699 5695 5690 5685 5680 5674
5772 5773 5774 5774 5773 5775 5777 5779 5781 5782 5781 5781 5781 5780 5780 5780 5779 5778 5777 5776 5775 5773 5771 5769 5767 5764 5761 5758 5755 5751 5748 5744 5739 5735 5731 5726 5721 5717 5712 5707 5702 5697 5692 5687 5682 5676 5671 5665 5659
5765 5766 5767 5766 5766 5767 5770 5772 5774 5775 5775 5775 5774 5774 5773 5773 5772 5772 5770 5769 5767 5766 5764 5761 5759 5756 5752 5749 5746 5742 5738 5733 5729 5724 5720 5715 5710 5705 5700 5695 5690 5684 5679 5673 5668 5662 5656 5650 5644
5758 5759 5759 5759 5760 5761 5762 5767 5767 5767 5767 5768 5768 5767 5767 5766 5765 5764 5763 5761 5760 5758 5755 5753 5750 5747 5743 5740 5736 5732 5727 5723 5718 5713 5708 5703 5698 5693 5687 5682 5677 5671 5665 5659 5653 5647 5641 5634 5628
5749 5751 5752 5753 5754 5754 5755 5761 5760 5760 5759 5760 5760 5760 5760 5759 5758 5756 5755 5753 5752 5749 5747 5744 5741 5737 5734 5730 5725 5721 5716 5711 5707 5701 5696 5691 5685 5680 5674 5669 5663 5657 5651 5645 5638 5632 5625 5618 5611